Year,Month,Day,Hour,Minute,Value (Times are PST for windspeed in km/hr)
2010,10,24,00,00,25.70
2010,10,24,00,01,35.20
2010,10,24,00,02,35.20
2010,10,24,00,03,36.80
2010,10,24,00,04,39.50
2010,10,24,00,05,26.60
2010,10,24,00,06,31.40
2010,10,24,00,07,32.70
2010,10,24,00,08,35.20
2010,10,24,00,09,36.10
2010,10,24,00,10,31.60
2010,10,24,00,11,27.30
2010,10,24,00,12,42.60
2010,10,24,00,13,32.90
2010,10,24,00,14,36.60
2010,10,24,00,15,25.80
2010,10,24,00,16,30.40
2010,10,24,00,17,37.80
2010,10,24,00,18,38.00
2010,10,24,00,19,34.60
2010,10,24,00,20,30.30
2010,10,24,00,21,35.70
2010,10,24,00,22,39.70
2010,10,24,00,23,39.00
2010,10,24,00,24,33.90
2010,10,24,00,25,42.80
2010,10,24,00,26,35.40
2010,10,24,00,27,42.50
2010,10,24,00,28,41.60
2010,10,24,00,29,37.10
2010,10,24,00,30,34.10
2010,10,24,00,31,32.30
2010,10,24,00,32,28.60
2010,10,24,00,33,39.20
2010,10,24,00,34,35.40
2010,10,24,00,35,37.00
2010,10,24,00,36,41.20
2010,10,24,00,37,38.50
2010,10,24,00,38,34.70
2010,10,24,00,39,39.70
2010,10,24,00,40,34.30
2010,10,24,00,41,35.90
2010,10,24,00,42,33.60
2010,10,24,00,43,34.00
2010,10,24,00,44,43.30
2010,10,24,00,45,37.10
2010,10,24,00,46,32.10
2010,10,24,00,47,37.30
2010,10,24,00,48,34.40
2010,10,24,00,49,32.50
2010,10,24,00,50,35.10
2010,10,24,00,51,32.80
2010,10,24,00,52,22.80
2010,10,24,00,53,33.90
2010,10,24,00,54,30.20
2010,10,24,00,55,27.00
2010,10,24,00,56,23.00
2010,10,24,00,57,27.00
2010,10,24,00,58,22.90
2010,10,24,00,59,27.90
2010,10,24,01,00,25.70
2010,10,24,01,01,24.20
2010,10,24,01,02,27.70
2010,10,24,01,03,37.20
2010,10,24,01,04,35.40
2010,10,24,01,05,28.40
2010,10,24,01,06,31.50
2010,10,24,01,07,32.40
2010,10,24,01,08,36.00
2010,10,24,01,09,27.30
2010,10,24,01,10,25.70
2010,10,24,01,11,38.40
2010,10,24,01,12,28.20
2010,10,24,01,13,34.60
2010,10,24,01,14,31.20
2010,10,24,01,15,38.50
2010,10,24,01,16,29.00
2010,10,24,01,17,30.10
2010,10,24,01,18,34.90
2010,10,24,01,19,31.60
2010,10,24,01,20,39.20
2010,10,24,01,21,42.40
2010,10,24,01,22,48.70
2010,10,24,01,23,29.20
2010,10,24,01,24,7.80
2010,10,24,01,25,29.50
2010,10,24,01,26,42.50
2010,10,24,01,27,37.30
2010,10,24,01,28,21.00
2010,10,24,01,29,28.40
2010,10,24,01,30,22.70
2010,10,24,01,31,20.30
2010,10,24,01,32,23.50
2010,10,24,01,33,24.30
2010,10,24,01,34,32.20
2010,10,24,01,35,21.10
2010,10,24,01,36,25.70
2010,10,24,01,37,26.70
2010,10,24,01,38,34.50
2010,10,24,01,39,21.50
2010,10,24,01,40,27.80
2010,10,24,01,41,24.20
2010,10,24,01,42,26.60
2010,10,24,01,43,26.40
2010,10,24,01,44,31.60
2010,10,24,01,45,24.80
2010,10,24,01,46,26.40
2010,10,24,01,47,36.20
2010,10,24,01,48,27.70
2010,10,24,01,49,26.80
2010,10,24,01,50,30.60
2010,10,24,01,51,29.00
2010,10,24,01,52,25.00
2010,10,24,01,53,33.90
2010,10,24,01,54,27.40
2010,10,24,01,55,29.30
2010,10,24,01,56,37.70
2010,10,24,01,57,41.90
2010,10,24,01,58,29.80
2010,10,24,01,59,23.30
2010,10,24,02,00,28.90
2010,10,24,02,01,25.30
2010,10,24,02,02,24.70
2010,10,24,02,03,32.30
2010,10,24,02,04,25.80
2010,10,24,02,05,30.00
2010,10,24,02,06,29.50
2010,10,24,02,07,29.10
2010,10,24,02,08,27.00
2010,10,24,02,09,26.20
2010,10,24,02,10,31.60
2010,10,24,02,11,32.10
2010,10,24,02,12,24.70
2010,10,24,02,13,25.60
2010,10,24,02,14,29.40
2010,10,24,02,15,20.40
2010,10,24,02,16,30.20
2010,10,24,02,17,26.90
2010,10,24,02,18,21.70
2010,10,24,02,19,34.30
2010,10,24,02,20,32.30
2010,10,24,02,21,17.60
2010,10,24,02,22,26.70
2010,10,24,02,23,19.60
2010,10,24,02,24,25.20
2010,10,24,02,25,29.50
2010,10,24,02,26,27.80
2010,10,24,02,27,24.00
2010,10,24,02,28,23.80
2010,10,24,02,29,28.30
2010,10,24,02,30,25.10
2010,10,24,02,31,30.40
2010,10,24,02,32,22.40
2010,10,24,02,33,19.10
2010,10,24,02,34,26.60
2010,10,24,02,35,28.70
2010,10,24,02,36,21.40
2010,10,24,02,37,24.70
2010,10,24,02,38,30.70
2010,10,24,02,39,27.50
2010,10,24,02,40,23.00
2010,10,24,02,41,29.70
2010,10,24,02,42,30.50
2010,10,24,02,43,24.90
2010,10,24,02,44,23.30
2010,10,24,02,45,22.10
2010,10,24,02,46,23.60
2010,10,24,02,47,22.50
2010,10,24,02,48,24.10
2010,10,24,02,49,27.10
2010,10,24,02,50,22.20
2010,10,24,02,51,21.60
2010,10,24,02,52,27.60
2010,10,24,02,53,22.40
2010,10,24,02,54,20.80
2010,10,24,02,55,15.90
2010,10,24,02,56,17.40
2010,10,24,02,57,19.70
2010,10,24,02,58,26.90
2010,10,24,02,59,21.50
2010,10,24,03,00,18.00
2010,10,24,03,01,20.30
2010,10,24,03,02,17.50
2010,10,24,03,03,14.90
2010,10,24,03,04,14.90
2010,10,24,03,05,23.50
2010,10,24,03,06,12.70
2010,10,24,03,07,25.90
2010,10,24,03,08,12.10
2010,10,24,03,09,17.90
2010,10,24,03,10,16.30
2010,10,24,03,11,15.30
2010,10,24,03,12,23.00
2010,10,24,03,13,19.20
2010,10,24,03,14,13.90
2010,10,24,03,15,13.40
2010,10,24,03,16,10.60
2010,10,24,03,17,18.20
2010,10,24,03,18,24.80
2010,10,24,03,19,13.70
2010,10,24,03,20,19.30
2010,10,24,03,21,20.60
2010,10,24,03,22,26.10
2010,10,24,03,23,18.30
2010,10,24,03,24,20.90
2010,10,24,03,25,23.30
2010,10,24,03,26,25.40
2010,10,24,03,27,18.70
2010,10,24,03,28,23.60
2010,10,24,03,29,20.80
2010,10,24,03,30,13.20
2010,10,24,03,31,13.40
2010,10,24,03,32,17.10
2010,10,24,03,33,12.60
2010,10,24,03,34,17.00
2010,10,24,03,35,20.00
2010,10,24,03,36,18.70
2010,10,24,03,37,24.00
2010,10,24,03,38,24.40
2010,10,24,03,39,22.90
2010,10,24,03,40,17.00
2010,10,24,03,41,15.10
2010,10,24,03,42,13.30
2010,10,24,03,43,16.20
2010,10,24,03,44,13.80
2010,10,24,03,45,12.90
2010,10,24,03,46,16.20
2010,10,24,03,47,16.70
2010,10,24,03,48,20.80
2010,10,24,03,49,19.10
2010,10,24,03,50,12.30
2010,10,24,03,51,14.10
2010,10,24,03,52,16.70
2010,10,24,03,53,8.80
2010,10,24,03,54,13.90
2010,10,24,03,55,18.60
2010,10,24,03,56,22.80
2010,10,24,03,57,16.50
2010,10,24,03,58,15.90
2010,10,24,03,59,21.00
2010,10,24,04,00,21.70
2010,10,24,04,01,22.90
2010,10,24,04,02,13.00
2010,10,24,04,03,20.40
2010,10,24,04,04,23.40
2010,10,24,04,05,20.50
2010,10,24,04,06,26.70
2010,10,24,04,07,22.90
2010,10,24,04,08,21.40
2010,10,24,04,09,23.10
2010,10,24,04,10,28.40
2010,10,24,04,11,22.40
2010,10,24,04,12,19.60
2010,10,24,04,13,21.70
2010,10,24,04,14,22.30
2010,10,24,04,15,18.40
2010,10,24,04,16,15.00
2010,10,24,04,17,18.40
2010,10,24,04,18,17.10
2010,10,24,04,19,17.50
2010,10,24,04,20,17.50
2010,10,24,04,21,18.00
2010,10,24,04,22,13.20
2010,10,24,04,23,22.50
2010,10,24,04,24,14.50
2010,10,24,04,25,18.00
2010,10,24,04,26,19.40
2010,10,24,04,27,24.10
2010,10,24,04,28,23.20
2010,10,24,04,29,13.70
2010,10,24,04,30,14.50
2010,10,24,04,31,21.80
2010,10,24,04,32,22.40
2010,10,24,04,33,18.20
2010,10,24,04,34,20.40
2010,10,24,04,35,14.80
2010,10,24,04,36,16.80
2010,10,24,04,37,12.80
2010,10,24,04,38,20.40
2010,10,24,04,39,18.60
2010,10,24,04,40,15.10
2010,10,24,04,41,16.70
2010,10,24,04,42,24.00
2010,10,24,04,43,16.60
2010,10,24,04,44,13.00
2010,10,24,04,45,20.80
2010,10,24,04,46,19.60
2010,10,24,04,47,11.40
2010,10,24,04,48,20.70
2010,10,24,04,49,15.40
2010,10,24,04,50,14.60
2010,10,24,04,51,11.90
2010,10,24,04,52,14.70
2010,10,24,04,53,12.40
2010,10,24,04,54,12.60
2010,10,24,04,55,7.70
2010,10,24,04,56,14.10
2010,10,24,04,57,12.00
2010,10,24,04,58,14.80
2010,10,24,04,59,11.30
2010,10,24,05,00,13.70
2010,10,24,05,01,19.40
2010,10,24,05,02,18.20
2010,10,24,05,03,20.50
2010,10,24,05,04,19.40
2010,10,24,05,05,11.90
2010,10,24,05,06,15.50
2010,10,24,05,07,9.50
2010,10,24,05,08,12.70
2010,10,24,05,09,10.20
2010,10,24,05,10,9.80
2010,10,24,05,11,16.00
2010,10,24,05,12,14.20
2010,10,24,05,13,13.80
2010,10,24,05,14,10.60
2010,10,24,05,15,12.40
2010,10,24,05,16,7.60
2010,10,24,05,17,10.10
2010,10,24,05,18,9.60
2010,10,24,05,19,12.20
2010,10,24,05,20,11.00
2010,10,24,05,21,10.40
2010,10,24,05,22,13.20
2010,10,24,05,23,10.00
2010,10,24,05,24,12.00
2010,10,24,05,25,12.70
2010,10,24,05,26,9.90
2010,10,24,05,27,6.30
2010,10,24,05,28,10.90
2010,10,24,05,29,5.20
2010,10,24,05,30,3.10
2010,10,24,05,31,2.70
2010,10,24,05,32,9.30
2010,10,24,05,33,10.10
2010,10,24,05,34,6.70
2010,10,24,05,35,5.40
2010,10,24,05,36,3.60
2010,10,24,05,37,5.10
2010,10,24,05,38,7.20
2010,10,24,05,39,4.20
2010,10,24,05,40,2.60
2010,10,24,05,41,0.00
2010,10,24,05,42,0.00
2010,10,24,05,43,0.00
2010,10,24,05,44,0.00
2010,10,24,05,45,0.50
2010,10,24,05,46,0.40
2010,10,24,05,47,0.00
2010,10,24,05,48,0.00
2010,10,24,05,49,1.40
2010,10,24,05,50,4.10
2010,10,24,05,51,0.80
2010,10,24,05,52,0.00
2010,10,24,05,53,0.30
2010,10,24,05,54,0.00
2010,10,24,05,55,0.00
2010,10,24,05,56,0.00
2010,10,24,05,57,0.00
2010,10,24,05,58,0.00
2010,10,24,05,59,0.00
2010,10,24,06,00,0.00
2010,10,24,06,01,0.00
2010,10,24,06,02,0.00
2010,10,24,06,03,0.00
2010,10,24,06,04,0.00
2010,10,24,06,05,0.00
2010,10,24,06,06,0.00
2010,10,24,06,07,0.00
2010,10,24,06,08,0.00
2010,10,24,06,09,0.00
2010,10,24,06,10,0.00
2010,10,24,06,11,0.00
2010,10,24,06,12,0.00
2010,10,24,06,13,1.90
2010,10,24,06,14,1.50
2010,10,24,06,15,0.00
2010,10,24,06,16,0.00
2010,10,24,06,17,0.00
2010,10,24,06,18,0.00
2010,10,24,06,19,0.00
2010,10,24,06,20,0.00
2010,10,24,06,21,0.70
2010,10,24,06,22,0.00
2010,10,24,06,23,0.00
2010,10,24,06,24,0.00
2010,10,24,06,25,0.00
2010,10,24,06,26,0.00
2010,10,24,06,27,0.00
2010,10,24,06,28,0.00
2010,10,24,06,29,0.00
2010,10,24,06,30,0.00
2010,10,24,06,31,0.00
2010,10,24,06,32,0.00
2010,10,24,06,33,0.00
2010,10,24,06,34,0.00
2010,10,24,06,35,0.00
2010,10,24,06,36,0.00
2010,10,24,06,37,0.40
2010,10,24,06,38,3.00
2010,10,24,06,39,0.00
2010,10,24,06,40,0.00
2010,10,24,06,41,0.00
2010,10,24,06,42,1.10
2010,10,24,06,43,2.70
2010,10,24,06,44,0.00
2010,10,24,06,45,0.00
2010,10,24,06,46,0.00
2010,10,24,06,47,3.70
2010,10,24,06,48,5.00
2010,10,24,06,49,0.90
2010,10,24,06,50,2.80
2010,10,24,06,51,0.00
2010,10,24,06,52,0.00
2010,10,24,06,53,0.70
2010,10,24,06,54,0.30
2010,10,24,06,55,1.60
2010,10,24,06,56,0.00
2010,10,24,06,57,0.00
2010,10,24,06,58,0.00
2010,10,24,06,59,0.50
2010,10,24,07,00,0.00
2010,10,24,07,01,0.00
2010,10,24,07,02,0.00
2010,10,24,07,03,0.00
2010,10,24,07,04,0.00
2010,10,24,07,05,0.00
2010,10,24,07,06,1.00
2010,10,24,07,07,0.00
2010,10,24,07,08,0.00
2010,10,24,07,09,0.00
2010,10,24,07,10,0.40
2010,10,24,07,11,0.00
2010,10,24,07,12,0.00
2010,10,24,07,13,0.00
2010,10,24,07,14,0.00
2010,10,24,07,15,0.10
2010,10,24,07,16,1.60
2010,10,24,07,17,1.90
2010,10,24,07,18,3.60
2010,10,24,07,19,2.70
2010,10,24,07,20,0.00
2010,10,24,07,21,0.00
2010,10,24,07,22,0.00
2010,10,24,07,23,0.00
2010,10,24,07,24,0.00
2010,10,24,07,25,0.70
2010,10,24,07,26,0.10
2010,10,24,07,27,1.10
2010,10,24,07,28,0.90
2010,10,24,07,29,0.00
2010,10,24,07,30,0.00
2010,10,24,07,31,0.00
2010,10,24,07,32,0.00
2010,10,24,07,33,0.00
2010,10,24,07,34,0.00
2010,10,24,07,35,0.00
2010,10,24,07,36,0.00
2010,10,24,07,37,0.00
2010,10,24,07,38,0.00
2010,10,24,07,39,0.00
2010,10,24,07,40,0.00
2010,10,24,07,41,0.00
2010,10,24,07,42,0.00
2010,10,24,07,43,0.00
2010,10,24,07,44,0.00
2010,10,24,07,45,0.10
2010,10,24,07,46,0.30
2010,10,24,07,47,0.00
2010,10,24,07,48,0.00
2010,10,24,07,49,1.40
2010,10,24,07,50,0.00
2010,10,24,07,51,0.00
2010,10,24,07,52,0.00
2010,10,24,07,53,0.00
2010,10,24,07,54,0.00
2010,10,24,07,55,0.00
2010,10,24,07,56,0.10
2010,10,24,07,57,0.00
2010,10,24,07,58,0.00
2010,10,24,07,59,0.00
2010,10,24,08,00,0.00
2010,10,24,08,01,1.10
2010,10,24,08,02,1.10
2010,10,24,08,03,0.00
2010,10,24,08,04,0.00
2010,10,24,08,05,0.70
2010,10,24,08,06,0.00
2010,10,24,08,07,0.00
2010,10,24,08,08,0.00
2010,10,24,08,09,0.00
2010,10,24,08,10,0.00
2010,10,24,08,11,0.60
2010,10,24,08,12,1.00
2010,10,24,08,13,4.00
2010,10,24,08,14,3.20
2010,10,24,08,15,1.60
2010,10,24,08,16,0.00
2010,10,24,08,17,2.80
2010,10,24,08,18,2.20
2010,10,24,08,19,3.50
2010,10,24,08,20,3.30
2010,10,24,08,21,3.90
2010,10,24,08,22,4.40
2010,10,24,08,23,3.30
2010,10,24,08,24,4.80
2010,10,24,08,25,5.00
2010,10,24,08,26,4.60
2010,10,24,08,27,4.10
2010,10,24,08,28,6.20
2010,10,24,08,29,3.30
2010,10,24,08,30,4.60
2010,10,24,08,31,8.80
2010,10,24,08,32,7.20
2010,10,24,08,33,8.20
2010,10,24,08,34,8.50
2010,10,24,08,35,7.40
2010,10,24,08,36,5.30
2010,10,24,08,37,5.60
2010,10,24,08,38,4.60
2010,10,24,08,39,4.70
2010,10,24,08,40,8.60
2010,10,24,08,41,2.70
2010,10,24,08,42,6.00
2010,10,24,08,43,5.00
2010,10,24,08,44,5.00
2010,10,24,08,45,4.60
2010,10,24,08,46,2.60
2010,10,24,08,47,0.40
2010,10,24,08,48,3.20
2010,10,24,08,49,5.30
2010,10,24,08,50,6.30
2010,10,24,08,51,9.80
2010,10,24,08,52,9.10
2010,10,24,08,53,5.50
2010,10,24,08,54,10.10
2010,10,24,08,55,8.40
2010,10,24,08,56,4.30
2010,10,24,08,57,5.30
2010,10,24,08,58,6.10
2010,10,24,08,59,6.80
2010,10,24,09,00,7.70
2010,10,24,09,01,5.40
2010,10,24,09,02,1.40
2010,10,24,09,03,6.20
2010,10,24,09,04,8.20
2010,10,24,09,05,6.10
2010,10,24,09,06,4.90
2010,10,24,09,07,11.30
2010,10,24,09,08,5.80
2010,10,24,09,09,6.00
2010,10,24,09,10,7.20
2010,10,24,09,11,6.40
2010,10,24,09,12,1.70
2010,10,24,09,13,4.10
2010,10,24,09,14,5.60
2010,10,24,09,15,7.90
2010,10,24,09,16,5.10
2010,10,24,09,17,4.70
2010,10,24,09,18,3.10
2010,10,24,09,19,1.20
2010,10,24,09,20,2.30
2010,10,24,09,21,1.30
2010,10,24,09,22,0.60
2010,10,24,09,23,1.00
2010,10,24,09,24,1.40
2010,10,24,09,25,1.90
2010,10,24,09,26,0.00
2010,10,24,09,27,0.00
2010,10,24,09,28,0.00
2010,10,24,09,29,0.00
2010,10,24,09,30,0.00
2010,10,24,09,31,0.00
2010,10,24,09,32,0.00
2010,10,24,09,33,0.00
2010,10,24,09,34,0.00
2010,10,24,09,35,0.00
2010,10,24,09,36,0.00
2010,10,24,09,37,0.00
2010,10,24,09,38,0.00
2010,10,24,09,39,0.00
2010,10,24,09,40,0.00
2010,10,24,09,41,0.00
2010,10,24,09,42,0.00
2010,10,24,09,43,0.00
2010,10,24,09,44,0.00
2010,10,24,09,45,0.00
2010,10,24,09,46,0.00
2010,10,24,09,47,0.00
2010,10,24,09,48,0.00
2010,10,24,09,49,0.00
2010,10,24,09,50,0.00
2010,10,24,09,51,0.00
2010,10,24,09,52,0.00
2010,10,24,09,53,0.00
2010,10,24,09,54,0.00
2010,10,24,09,55,0.00
2010,10,24,09,56,0.00
2010,10,24,09,57,0.00
2010,10,24,09,58,0.40
2010,10,24,09,59,0.00
2010,10,24,10,00,0.00
2010,10,24,10,01,0.00
2010,10,24,10,02,0.00
2010,10,24,10,03,0.00
2010,10,24,10,04,0.00
2010,10,24,10,05,0.00
2010,10,24,10,06,0.00
2010,10,24,10,07,0.00
2010,10,24,10,08,0.00
2010,10,24,10,09,0.00
2010,10,24,10,10,0.00
2010,10,24,10,11,0.00
2010,10,24,10,12,0.00
2010,10,24,10,13,0.00
2010,10,24,10,14,0.00
2010,10,24,10,15,0.00
2010,10,24,10,16,0.00
2010,10,24,10,17,0.00
2010,10,24,10,18,0.00
2010,10,24,10,19,0.00
2010,10,24,10,20,0.00
2010,10,24,10,21,0.00
2010,10,24,10,22,0.00
2010,10,24,10,23,0.00
2010,10,24,10,24,0.00
2010,10,24,10,25,0.00
2010,10,24,10,26,0.00
2010,10,24,10,27,0.00
2010,10,24,10,28,0.00
2010,10,24,10,29,0.20
2010,10,24,10,30,0.00
2010,10,24,10,31,0.00
2010,10,24,10,32,0.00
2010,10,24,10,33,0.00
2010,10,24,10,34,0.00
2010,10,24,10,35,0.00
2010,10,24,10,36,0.00
2010,10,24,10,37,0.00
2010,10,24,10,38,0.00
2010,10,24,10,39,0.00
2010,10,24,10,40,0.00
2010,10,24,10,41,0.00
2010,10,24,10,42,0.00
2010,10,24,10,43,0.30
2010,10,24,10,44,0.40
2010,10,24,10,45,1.10
2010,10,24,10,46,0.00
2010,10,24,10,47,0.00
2010,10,24,10,48,0.00
2010,10,24,10,49,0.00
2010,10,24,10,50,0.20
2010,10,24,10,51,2.80
2010,10,24,10,52,0.00
2010,10,24,10,53,0.80
2010,10,24,10,54,0.60
2010,10,24,10,55,0.00
2010,10,24,10,56,2.70
2010,10,24,10,57,3.10
2010,10,24,10,58,0.90
2010,10,24,10,59,0.00
2010,10,24,11,00,0.70
2010,10,24,11,01,1.10
2010,10,24,11,02,1.40
2010,10,24,11,03,1.00
2010,10,24,11,04,0.00
2010,10,24,11,05,0.00
2010,10,24,11,06,1.30
2010,10,24,11,07,2.00
2010,10,24,11,08,0.00
2010,10,24,11,09,0.00
2010,10,24,11,10,0.00
2010,10,24,11,11,1.30
2010,10,24,11,12,0.80
2010,10,24,11,13,0.00
2010,10,24,11,14,1.40
2010,10,24,11,15,1.00
2010,10,24,11,16,2.40
2010,10,24,11,17,1.40
2010,10,24,11,18,3.20
2010,10,24,11,19,0.70
2010,10,24,11,20,0.00
2010,10,24,11,21,0.50
2010,10,24,11,22,0.90
2010,10,24,11,23,5.50
2010,10,24,11,24,1.40
2010,10,24,11,25,0.00
2010,10,24,11,26,0.00
2010,10,24,11,27,1.00
2010,10,24,11,28,0.60
2010,10,24,11,29,4.10
2010,10,24,11,30,5.00
2010,10,24,11,31,0.00
2010,10,24,11,32,1.40
2010,10,24,11,33,1.20
2010,10,24,11,34,4.20
2010,10,24,11,35,7.40
2010,10,24,11,36,5.50
2010,10,24,11,37,1.80
2010,10,24,11,38,2.80
2010,10,24,11,39,9.30
2010,10,24,11,40,5.40
2010,10,24,11,41,6.80
2010,10,24,11,42,5.80
2010,10,24,11,43,6.70
2010,10,24,11,44,0.60
2010,10,24,11,45,2.90
2010,10,24,11,46,1.30
2010,10,24,11,47,0.90
2010,10,24,11,48,3.10
2010,10,24,11,49,1.30
2010,10,24,11,50,0.90
2010,10,24,11,51,0.00
2010,10,24,11,52,0.00
2010,10,24,11,53,3.50
2010,10,24,11,54,4.30
2010,10,24,11,55,3.30
2010,10,24,11,56,4.10
2010,10,24,11,57,0.90
2010,10,24,11,58,6.70
2010,10,24,11,59,2.90
2010,10,24,12,00,5.50
2010,10,24,12,01,0.90
2010,10,24,12,02,1.90
2010,10,24,12,03,0.40
2010,10,24,12,04,0.00
2010,10,24,12,05,8.80
2010,10,24,12,06,7.30
2010,10,24,12,07,5.70
2010,10,24,12,08,5.40
2010,10,24,12,09,11.10
2010,10,24,12,10,9.80
2010,10,24,12,11,10.10
2010,10,24,12,12,8.00
2010,10,24,12,13,5.20
2010,10,24,12,14,6.90
2010,10,24,12,15,8.50
2010,10,24,12,16,5.00
2010,10,24,12,17,1.20
2010,10,24,12,18,1.10
2010,10,24,12,19,4.10
2010,10,24,12,20,2.00
2010,10,24,12,21,2.60
2010,10,24,12,22,5.80
2010,10,24,12,23,5.20
2010,10,24,12,24,7.20
2010,10,24,12,25,1.10
2010,10,24,12,26,0.00
2010,10,24,12,27,3.10
2010,10,24,12,28,4.70
2010,10,24,12,29,3.50
2010,10,24,12,30,5.80
2010,10,24,12,31,7.20
2010,10,24,12,32,7.60
2010,10,24,12,33,4.50
2010,10,24,12,34,2.40
2010,10,24,12,35,0.00
2010,10,24,12,36,2.10
2010,10,24,12,37,1.10
2010,10,24,12,38,4.80
2010,10,24,12,39,4.10
2010,10,24,12,40,1.40
2010,10,24,12,41,5.30
2010,10,24,12,42,3.80
2010,10,24,12,43,5.70
2010,10,24,12,44,3.60
2010,10,24,12,45,9.20
2010,10,24,12,46,9.60
2010,10,24,12,47,6.00
2010,10,24,12,48,1.30
2010,10,24,12,49,5.00
2010,10,24,12,50,1.80
2010,10,24,12,51,2.80
2010,10,24,12,52,10.30
2010,10,24,12,53,8.40
2010,10,24,12,54,5.90
2010,10,24,12,55,0.00
2010,10,24,12,56,6.10
2010,10,24,12,57,10.90
2010,10,24,12,58,9.10
2010,10,24,12,59,5.90
2010,10,24,13,00,4.60
2010,10,24,13,01,6.20
2010,10,24,13,02,4.20
2010,10,24,13,03,2.90
2010,10,24,13,04,4.20
2010,10,24,13,05,5.40
2010,10,24,13,06,5.10
2010,10,24,13,07,0.30
2010,10,24,13,08,2.50
2010,10,24,13,09,3.40
2010,10,24,13,10,0.00
2010,10,24,13,11,3.00
2010,10,24,13,12,2.50
2010,10,24,13,13,1.60
2010,10,24,13,14,3.30
2010,10,24,13,15,6.90
2010,10,24,13,16,6.90
2010,10,24,13,17,5.30
2010,10,24,13,18,9.90
2010,10,24,13,19,0.40
2010,10,24,13,20,5.90
2010,10,24,13,21,5.70
2010,10,24,13,22,9.10
2010,10,24,13,23,4.50
2010,10,24,13,24,8.20
2010,10,24,13,25,6.10
2010,10,24,13,26,2.10
2010,10,24,13,27,4.40
2010,10,24,13,28,12.60
2010,10,24,13,29,6.90
2010,10,24,13,30,6.90
2010,10,24,13,31,9.50
2010,10,24,13,32,3.30
2010,10,24,13,33,0.00
2010,10,24,13,34,0.00
2010,10,24,13,35,5.10
2010,10,24,13,36,5.30
2010,10,24,13,37,0.50
2010,10,24,13,38,4.40
2010,10,24,13,39,3.90
2010,10,24,13,40,3.40
2010,10,24,13,41,2.60
2010,10,24,13,42,6.40
2010,10,24,13,43,3.30
2010,10,24,13,44,0.90
2010,10,24,13,45,0.00
2010,10,24,13,46,1.10
2010,10,24,13,47,1.70
2010,10,24,13,48,0.00
2010,10,24,13,49,0.00
2010,10,24,13,50,0.00
2010,10,24,13,51,0.00
2010,10,24,13,52,0.80
2010,10,24,13,53,1.90
2010,10,24,13,54,5.10
2010,10,24,13,55,1.60
2010,10,24,13,56,0.50
2010,10,24,13,57,0.00
2010,10,24,13,58,2.40
2010,10,24,13,59,0.00
2010,10,24,14,00,3.80
2010,10,24,14,01,2.20
2010,10,24,14,02,0.30
2010,10,24,14,03,0.00
2010,10,24,14,04,0.00
2010,10,24,14,05,1.00
2010,10,24,14,06,1.70
2010,10,24,14,07,4.70
2010,10,24,14,08,5.80
2010,10,24,14,09,8.50
2010,10,24,14,10,1.60
2010,10,24,14,11,8.20
2010,10,24,14,12,5.90
2010,10,24,14,13,3.00
2010,10,24,14,14,1.50
2010,10,24,14,15,0.80
2010,10,24,14,16,2.70
2010,10,24,14,17,10.40
2010,10,24,14,18,8.10
2010,10,24,14,19,5.40
2010,10,24,14,20,8.60
2010,10,24,14,21,9.30
2010,10,24,14,22,7.90
2010,10,24,14,23,8.30
2010,10,24,14,24,8.40
2010,10,24,14,25,10.00
2010,10,24,14,26,14.10
2010,10,24,14,27,12.60
2010,10,24,14,28,7.60
2010,10,24,14,29,13.20
2010,10,24,14,30,12.40
2010,10,24,14,31,7.60
2010,10,24,14,32,8.50
2010,10,24,14,33,11.70
2010,10,24,14,34,9.30
2010,10,24,14,35,6.90
2010,10,24,14,36,2.30
2010,10,24,14,37,9.60
2010,10,24,14,38,11.80
2010,10,24,14,39,10.10
2010,10,24,14,40,6.80
2010,10,24,14,41,9.80
2010,10,24,14,42,8.10
2010,10,24,14,43,10.10
2010,10,24,14,44,12.30
2010,10,24,14,45,7.70
2010,10,24,14,46,9.30
2010,10,24,14,47,11.70
2010,10,24,14,48,11.40
2010,10,24,14,49,7.70
2010,10,24,14,50,9.30
2010,10,24,14,51,13.10
2010,10,24,14,52,7.90
2010,10,24,14,53,8.50
2010,10,24,14,54,9.10
2010,10,24,14,55,10.80
2010,10,24,14,56,9.70
2010,10,24,14,57,11.00
2010,10,24,14,58,12.30
2010,10,24,14,59,14.80
2010,10,24,15,00,12.10
2010,10,24,15,01,13.00
2010,10,24,15,02,12.10
2010,10,24,15,03,11.70
2010,10,24,15,04,12.60
2010,10,24,15,05,10.50
2010,10,24,15,06,9.80
2010,10,24,15,07,12.60
2010,10,24,15,08,10.20
2010,10,24,15,09,7.50
2010,10,24,15,10,2.00
2010,10,24,15,11,1.90
2010,10,24,15,12,6.50
2010,10,24,15,13,4.40
2010,10,24,15,14,5.00
2010,10,24,15,15,4.50
2010,10,24,15,16,5.90
2010,10,24,15,17,7.70
2010,10,24,15,18,8.00
2010,10,24,15,19,3.10
2010,10,24,15,20,5.10
2010,10,24,15,21,5.10
2010,10,24,15,22,8.60
2010,10,24,15,23,5.00
2010,10,24,15,24,4.30
2010,10,24,15,25,4.30
2010,10,24,15,26,7.70
2010,10,24,15,27,6.70
2010,10,24,15,28,6.30
2010,10,24,15,29,4.80
2010,10,24,15,30,5.80
2010,10,24,15,31,1.40
2010,10,24,15,32,12.10
2010,10,24,15,33,9.80
2010,10,24,15,34,5.90
2010,10,24,15,35,10.60
2010,10,24,15,36,7.10
2010,10,24,15,37,7.90
2010,10,24,15,38,8.60
2010,10,24,15,39,6.00
2010,10,24,15,40,4.00
2010,10,24,15,41,2.90
2010,10,24,15,42,2.70
2010,10,24,15,43,4.70
2010,10,24,15,44,10.80
2010,10,24,15,45,9.50
2010,10,24,15,46,4.30
2010,10,24,15,47,4.60
2010,10,24,15,48,0.10
2010,10,24,15,49,3.50
2010,10,24,15,50,9.60
2010,10,24,15,51,10.60
2010,10,24,15,52,5.50
2010,10,24,15,53,3.50
2010,10,24,15,54,1.50
2010,10,24,15,55,0.00
2010,10,24,15,56,5.00
2010,10,24,15,57,6.90
2010,10,24,15,58,5.30
2010,10,24,15,59,5.50
2010,10,24,16,00,9.50
2010,10,24,16,01,8.40
2010,10,24,16,02,6.80
2010,10,24,16,03,6.40
2010,10,24,16,04,0.50
2010,10,24,16,05,4.90
2010,10,24,16,06,6.40
2010,10,24,16,07,8.30
2010,10,24,16,08,8.70
2010,10,24,16,09,4.70
2010,10,24,16,10,9.40
2010,10,24,16,11,10.50
2010,10,24,16,12,9.20
2010,10,24,16,13,6.10
2010,10,24,16,14,7.20
2010,10,24,16,15,7.20
2010,10,24,16,16,4.50
2010,10,24,16,17,6.40
2010,10,24,16,18,5.00
2010,10,24,16,19,7.40
2010,10,24,16,20,9.50
2010,10,24,16,21,4.90
2010,10,24,16,22,4.20
2010,10,24,16,23,4.90
2010,10,24,16,24,3.80
2010,10,24,16,25,4.60
2010,10,24,16,26,1.90
2010,10,24,16,27,2.40
2010,10,24,16,28,0.30
2010,10,24,16,29,0.00
2010,10,24,16,30,5.60
2010,10,24,16,31,8.90
2010,10,24,16,32,8.90
2010,10,24,16,33,7.80
2010,10,24,16,34,6.60
2010,10,24,16,35,5.90
2010,10,24,16,36,5.80
2010,10,24,16,37,1.50
2010,10,24,16,38,0.00
2010,10,24,16,39,0.00
2010,10,24,16,40,0.90
2010,10,24,16,41,0.00
2010,10,24,16,42,1.20
2010,10,24,16,43,4.90
2010,10,24,16,44,0.00
2010,10,24,16,45,1.00
2010,10,24,16,46,1.70
2010,10,24,16,47,1.40
2010,10,24,16,48,0.00
2010,10,24,16,49,0.00
2010,10,24,16,50,0.00
2010,10,24,16,51,0.00
2010,10,24,16,52,0.00
2010,10,24,16,53,0.00
2010,10,24,16,54,0.00
2010,10,24,16,55,0.00
2010,10,24,16,56,0.00
2010,10,24,16,57,0.00
2010,10,24,16,58,0.00
2010,10,24,16,59,1.90
2010,10,24,17,00,1.50
2010,10,24,17,01,0.00
2010,10,24,17,02,0.00
2010,10,24,17,03,0.00
2010,10,24,17,04,0.00
2010,10,24,17,05,0.00
2010,10,24,17,06,0.70
2010,10,24,17,07,1.40
2010,10,24,17,08,3.50
2010,10,24,17,09,3.70
2010,10,24,17,10,2.00
2010,10,24,17,11,0.30
2010,10,24,17,12,0.50
2010,10,24,17,13,0.00
2010,10,24,17,14,4.60
2010,10,24,17,15,4.40
2010,10,24,17,16,0.10
2010,10,24,17,17,0.00
2010,10,24,17,18,0.00
2010,10,24,17,19,0.00
2010,10,24,17,20,0.00
2010,10,24,17,21,0.00
2010,10,24,17,22,0.00
2010,10,24,17,23,0.30
2010,10,24,17,24,2.20
2010,10,24,17,25,0.00
2010,10,24,17,26,0.00
2010,10,24,17,27,0.00
2010,10,24,17,28,0.00
2010,10,24,17,29,0.00
2010,10,24,17,30,0.00
2010,10,24,17,31,0.00
2010,10,24,17,32,0.00
2010,10,24,17,33,0.00
2010,10,24,17,34,0.30
2010,10,24,17,35,0.00
2010,10,24,17,36,0.00
2010,10,24,17,37,0.00
2010,10,24,17,38,0.00
2010,10,24,17,39,0.00
2010,10,24,17,40,0.00
2010,10,24,17,41,0.00
2010,10,24,17,42,0.00
2010,10,24,17,43,0.00
2010,10,24,17,44,0.00
2010,10,24,17,45,0.00
2010,10,24,17,46,0.00
2010,10,24,17,47,0.00
2010,10,24,17,48,2.30
2010,10,24,17,49,0.00
2010,10,24,17,50,0.00